Preview of NWS' New Version of Forecast
This preview is not operational and should not be used for support decisions.
Latest weather observations around

Russellville, Russellville Regional Airport (KRUE)

Using English Units (Switch to International System of Units)
Date/ Time (CDT) Wind (mph) Vis. (mi) Weather Sky Cond. Temp (°F) Rel. Humidity Wind Chill (°F) Heat Index (°F) Pressure Precip. (in)
Air Dwpt 6 hour Altimeter (inHg) Sea level (inHg) 1 hr 3 hr 6 hr
Max Min
Jun 18 07:53 S 3 10 Clear CLR 79 70     74%   82 30.09 30.06      
Jun 18 06:53 Calm 10 Clear CLR 76 69     79%   77 30.06 30.04      
Jun 18 05:53 Calm 10 Clear CLR 73 69     87%   74 30.05 30.03      
Jun 18 04:53 Calm 10 Clear CLR 75 69     82%   76 30.04 30.01      
Jun 18 03:53 Calm 10 Clear CLR 78 70     76%   79 30.03 30.01      
Jun 18 02:53 SSE 3 10 Clear CLR 79 71     77%   82 30.02 29.99      
Jun 18 01:53 Calm 10 Clear CLR 79 71     77%   82 30.02 29.99      
Jun 18 00:53 3 10 Clear CLR 80 71     74%   84 30.02 30      
Jun 17 23:53 ESE 5 10 Clear CLR 81 71     72%   85 30.04 30.01      
Jun 17 22:53 Calm 10 Clear CLR 80 71     74%   84 30.03 30.01      
Jun 17 21:53 Calm 10 Clear CLR 81 72     74%   85 30.02 29.99      
Jun 17 20:53 Calm 10 Clear CLR 84 70     63%   88 29.99 29.97      
Jun 17 19:53 3 10 Clear CLR 88 70     55%   93 29.98 29.95      
Jun 17 18:53 S 5 10 Mostly Clear FEW060 91 69     49%   96 29.97 29.94      
Jun 17 17:53 S 6 10 Mostly Clear FEW055 93 69     46%   98 29.97 29.94      
Jun 17 16:53 6 10 Mostly Clear FEW070 93 69     46%   98 29.98 29.96      
Jun 17 15:53 5 10 Partly Cloudy SCT065 91 69     49%   96 29.99 29.97      
Jun 17 14:53 SSE 5 10 Mostly Cloudy BKN055 92 69     47%   97 30.01 29.98      
Jun 17 13:53 S 9 10 Mostly Clear FEW050 92 70     49%   98 30.02 29.99      
Jun 17 12:53 Calm 10 Mostly Cloudy SCT042 BKN050 BKN065 88 70     55%   93 30.03 30.01      
Jun 17 11:53 SSW 5 10 Mostly Clear FEW035 89 72     57%   96 30.04 30.01      
Jun 17 10:53 Calm 10 Mostly Cloudy FEW030 BKN039 BKN065 86 73     65%   93 30.05 30.02      
Jun 17 10:41 Calm 10 Cloudy BKN031 OVC038 87 73     63%   95 30.05        
Jun 17 10:31 ESE 5 10 Mostly Cloudy BKN029 BKN034 86 73     65%   93 30.05        
Jun 17 09:53 W 6 10 Partly Cloudy SCT028 85 73     68%   92 30.05 30.02      
Jun 17 08:53 S 7 10 Clear CLR 83 73     72%   89 30.05 30.02      
Jun 17 07:53 ESE 3 10 Clear CLR 81 74     79%   86 30.04 30.01      
Jun 17 06:53 ESE 3 10 Clear CLR 77 73     88%   79 30.02 29.99      
Jun 17 05:53 Calm 10 Clear CLR 76 72     88%   77 30 29.97      
Jun 17 04:53 Calm 10 Clear CLR 75 72     90%   76 29.98 29.95      
Jun 17 03:53 Calm 10 Clear CLR 77 72     84%   78 29.97 29.94      
Jun 17 02:53 Calm 10 Clear CLR 79 72     79%   82 29.97 29.94      
Jun 17 01:53 Calm 10 Clear CLR 77 72     84%   78 29.96 29.94      
Jun 17 00:53 Calm 10 Clear CLR 78 72     82%   79 29.97 29.95      
Jun 16 23:53 Calm 10 Clear CLR 80 72     76%   84 29.97 29.95      
Jun 16 22:53 Calm 10 Clear CLR 83 72     70%   88 29.97 29.94      
Jun 16 21:53 3 10 Clear CLR 85 71     63%   90 29.95 29.92      
Jun 16 20:53 Calm 10 Clear CLR 85 72     65%   91 29.92 29.89      
Jun 16 19:53 Calm 10 Mostly Clear FEW065 89 71     55%   95 29.9 29.88      
Jun 16 18:53 SE 3 10 Clear CLR 93 69     46%   98 29.9 29.87      
Jun 16 17:53 SE 3 10 Clear CLR 93 69     46%   98 29.9 29.87      
Jun 16 16:53 6 10 Clear CLR 94 70     46%   100 29.91 29.88      
Jun 16 15:53 6 10 Partly Cloudy SCT065 SCT085 93 69     46%   98 29.91 29.89      
Jun 16 14:53 6 10 Mostly Clear FEW060 95 68     42%   100 29.93 29.9      
Jun 16 13:53 5 10 Partly Cloudy FEW055 SCT110 92 69     47%   97 29.94 29.91      
Jun 16 12:53 Calm 10 Mostly Cloudy FEW044 SCT060 BKN085 89 71     55%   95 29.95 29.93      
Jun 16 11:53 5 10 Mostly Clear FEW037 90 72     56%   97 29.97 29.94      
Jun 16 10:53 3 10 Clear CLR 88 72     59%   95 29.98 29.95      
Jun 16 09:53 S 8 10 Clear CLR 85 72     65%   91 29.98 29.96      
Jun 16 08:53 E 3 10 Clear CLR 83 72     70%   88 29.99 29.96      
Jun 16 07:53 Calm 10 Clear CLR 81 73     77%   86 29.98 29.96      
Jun 16 06:53 NW 3 10 Clear CLR 77 72     84%   78 29.97 29.94      
Jun 16 05:53 Calm 10 Clear CLR 73 71     94%   74 29.95 29.93      
Jun 16 04:53 Calm 10 Mostly Clear FEW060 74 71     91%   75 29.95 29.92      
Jun 16 03:53 Calm 10 Clear CLR 73 71     94%   74 29.94 29.92      
Jun 16 02:53 Calm 10 Clear CLR 74 72     94%   75 29.93 29.91      
Jun 16 01:53 Calm 10 Clear CLR 74 72     94%   75 29.93 29.91      
Jun 16 00:53 Calm 10 Clear CLR 75 72     90%   76 29.93 29.91      
Jun 15 23:53 Calm 10 Clear CLR 77 72     84%   78 29.93 29.91      
Jun 15 22:53 SE 3 10 Clear CLR 79 72     79%   82 29.93 29.91      
Jun 15 21:53 Calm 10 Clear CLR 82 71     69%   86 29.92 29.89      
Jun 15 20:53 Calm 10 Clear CLR 83 72     70%   88 29.9 29.87      
Jun 15 19:53 Calm 10 Clear CLR 89 70     53%   94 29.89 29.86      
Jun 15 18:53 3 10 Mostly Clear FEW065 92 69     47%   97 29.87 29.85      
Jun 15 17:53 SE 3 10 Partly Cloudy SCT065 SCT100 90 71     54%   96 29.87 29.85      
Jun 15 16:53 6 10 Mostly Cloudy BKN070 BKN120 91 70     50%   97 29.88 29.85      
Jun 15 15:53 3 10 Mostly Clear FEW060 95 68     42%   100 29.9 29.87      
Jun 15 14:53 ESE 6 10 Mostly Cloudy SCT055 BKN085 92 71     51%   99 29.92 29.89      
Jun 15 13:53 3 10 Partly Cloudy FEW046 SCT055 91 72     54%   99 29.93 29.91      
Jun 15 12:53 6 10 Partly Cloudy SCT049 92 71     51%   99 29.96 29.93      
Jun 15 11:53 5 10 Clear CLR 90 71     54%   96 29.97 29.95      
Jun 15 10:53 SSW 6 10 Clear CLR 87 72     61%   94 29.97 29.95      
Jun 15 09:53 3 10 Clear CLR 85 72     65%   91 29.98 29.96      
Jun 15 08:53 5 10 Clear CLR 83 73     72%   89 29.99 29.96      
Jun 15 07:53 Calm 10 Clear CLR 80 73     79%   84 29.99 29.96      
May 15 13:53 N 10 10 Clear CLR 78 66     67%   79 29.96 29.94      
May 15 05:53 Calm 9 Clear CLR 67 66     97%     29.96 29.93      
May 14 10:53 SSW 9 10 Clear CLR 85 70     61%   89 29.98 29.96      
May 13 00:53 Calm 9 Clear CLR 67 66     97%     30 29.98      
May 12 17:53 S 10 10 Mostly Cloudy BKN060 85 64     50%   86 29.98 29.96      
May 12 16:53 S 8 10 Mostly Clear FEW060 84 64     51%   85 29.99 29.97      
May 12 01:53 Calm 10 Clear CLR 71 63     76%   71 29.93 29.9      
May 11 19:53 S 7 10 Clear CLR 81 61     51%   82 29.88 29.86      
Jun 12 05:53 SSE 3 10 Clear CLR 71 69     93%   72 29.98 29.96      
Jun 11 01:53 5 10 Clear   72 64     76%   72 29.96 29.94      
Jun 10 16:53 S 8 10 Cloudy FEW047 OVC060 83 66     57%   85 29.91 29.89      
Jun 09 15:53 SSW 5 10 Clear CLR 80 56     44%   80 29.92 29.9      
Jun 08 07:53 Calm 10 Clear CLR 64 57     78%     30.04 30.02      
Jun 07 10:53 NNE 6 10 Clear CLR 77 56     48%   77 30.02 29.99      
Jun 06 06:42 Calm 1.5 Fog/Mist OVC002 68 67     96%     29.85        
Jun 06 04:53 Calm 9 Clear CLR 67 66     97%     29.83 29.81      
Jun 06 02:53 Calm 6 Fog/Mist CLR 68 67     96%     29.82 29.8      
Jun 06 01:22 WNW 3 1.5 Fog/Mist FEW002 68 67     96%     29.81        
Jun 05 23:18 Calm 2.5 Fog/Mist CLR 69 68     96%     29.82        
Jun 05 19:53 Calm 10 Clear CLR 74 71     91%   75 29.78 29.75      
Jun 05 15:00 ENE 8 1.75 Heavy Rain and Fog/Mist FEW029 BKN080 BKN090 75 71     88%   76 29.77   0